TimeEDT,TemperatureF,Dew PointF,Humidity,Sea Level PressureIn,VisibilityMPH,Wind Direction,Wind SpeedMPH,Gust SpeedMPH,PrecipitationIn,Events,Conditions,WindDirDegrees,DateUTC
12:15 AM,57.6,56.8,97,30.20,7.0,Calm,Calm,-,N/A,,Clear,0,2013-09-16 04:15:00
12:35 AM,57.6,56.7,97,30.20,7.0,Calm,Calm,-,N/A,,Clear,0,2013-09-16 04:35:00
12:55 AM,56.8,56.3,98,30.20,4.0,Calm,Calm,-,N/A,,Clear,0,2013-09-16 04:55:00
1:15 AM,56.3,55.8,98,30.19,4.0,Calm,Calm,-,N/A,,Clear,0,2013-09-16 05:15:00
1:35 AM,56.7,56.5,99,30.20,2.5,Calm,Calm,-,N/A,,Scattered Clouds,0,2013-09-16 05:35:00
1:55 AM,57.0,56.5,98,30.20,4.0,Calm,Calm,-,N/A,,Overcast,0,2013-09-16 05:55:00
2:15 AM,57.2,56.7,98,30.20,4.0,Calm,Calm,-,N/A,,Overcast,0,2013-09-16 06:15:00
2:35 AM,56.8,56.3,98,30.20,5.0,Calm,Calm,-,N/A,,Mostly Cloudy,0,2013-09-16 06:35:00
2:55 AM,56.5,56.3,99,30.20,5.0,Calm,Calm,-,N/A,,Mostly Cloudy,0,2013-09-16 06:55:00
3:15 AM,56.3,55.8,98,30.19,4.0,Calm,Calm,-,N/A,,Mostly Cloudy,0,2013-09-16 07:15:00
3:35 AM,55.4,54.9,98,30.19,4.0,Calm,Calm,-,N/A,,Scattered Clouds,0,2013-09-16 07:35:00
3:55 AM,55.2,54.9,99,30.19,4.0,Calm,Calm,-,N/A,,Scattered Clouds,0,2013-09-16 07:55:00
4:15 AM,55.6,55.2,99,30.19,4.0,Calm,Calm,-,N/A,,Mostly Cloudy,0,2013-09-16 08:15:00
4:35 AM,55.4,55.0,99,30.19,5.0,Calm,Calm,-,N/A,,Scattered Clouds,0,2013-09-16 08:35:00
4:55 AM,55.2,54.7,98,30.19,3.0,Calm,Calm,-,N/A,,Scattered Clouds,0,2013-09-16 08:55:00
5:15 AM,55.4,54.9,98,30.19,5.0,Calm,Calm,-,N/A,,Scattered Clouds,0,2013-09-16 09:15:00
5:35 AM,55.4,55.0,99,30.19,7.0,Calm,Calm,-,N/A,,Mostly Cloudy,0,2013-09-16 09:35:00
5:55 AM,55.4,54.9,98,30.19,5.0,Calm,Calm,-,N/A,,Mostly Cloudy,0,2013-09-16 09:55:00
6:15 AM,54.9,54.5,99,30.19,7.0,Calm,Calm,-,N/A,,Scattered Clouds,0,2013-09-16 10:15:00
6:35 AM,54.7,54.3,99,30.19,5.0,Calm,Calm,-,N/A,,Scattered Clouds,0,2013-09-16 10:35:00
6:55 AM,54.0,53.6,99,30.20,7.0,Calm,Calm,-,N/A,,Scattered Clouds,0,2013-09-16 10:55:00
7:15 AM,54.0,53.6,99,30.20,5.0,Calm,Calm,-,N/A,,Scattered Clouds,0,2013-09-16 11:15:00
7:35 AM,54.0,53.6,99,30.20,3.0,Calm,Calm,-,N/A,,Scattered Clouds,0,2013-09-16 11:35:00
7:55 AM,55.2,54.7,98,30.20,4.0,Calm,Calm,-,N/A,,Scattered Clouds,0,2013-09-16 11:55:00
8:15 AM,55.8,55.4,99,30.20,5.0,Calm,Calm,-,N/A,,Scattered Clouds,0,2013-09-16 12:15:00
8:35 AM,56.7,56.3,99,30.21,5.0,Calm,Calm,-,N/A,,Scattered Clouds,0,2013-09-16 12:35:00
8:55 AM,57.6,57.0,98,30.21,5.0,Calm,Calm,-,N/A,,Clear,0,2013-09-16 12:55:00
9:15 AM,59.4,58.1,96,30.21,7.0,Calm,Calm,-,N/A,,Clear,0,2013-09-16 13:15:00
9:35 AM,61.0,59.4,94,30.21,7.0,Calm,Calm,-,N/A,,Clear,0,2013-09-16 13:35:00
9:55 AM,64.0,61.0,90,30.21,10.0,Calm,Calm,-,N/A,,Clear,0,2013-09-16 13:55:00
10:15 AM,65.7,62.2,89,30.20,10.0,Calm,Calm,-,N/A,,Clear,0,2013-09-16 14:15:00
10:35 AM,68.0,63.0,84,30.20,10.0,Calm,Calm,-,N/A,,Clear,0,2013-09-16 14:35:00
10:55 AM,69.6,64.2,83,30.20,10.0,Calm,Calm,-,N/A,,Clear,0,2013-09-16 14:55:00
11:15 AM,71.4,65.1,80,30.20,10.0,Calm,Calm,-,N/A,,Clear,0,2013-09-16 15:15:00
11:35 AM,73.6,65.3,75,30.20,10.0,WSW,4.6,-,N/A,,Clear,250,2013-09-16 15:35:00
11:55 AM,76.1,63.5,65,30.20,10.0,SSW,3.5,-,N/A,,Clear,200,2013-09-16 15:55:00
12:15 PM,75.9,63.0,64,30.19,10.0,West,4.6,-,N/A,,Clear,270,2013-09-16 16:15:00
12:35 PM,75.7,63.1,65,30.19,10.0,SW,3.5,-,N/A,,Clear,230,2013-09-16 16:35:00
12:55 PM,76.6,62.6,62,30.19,10.0,SW,3.5,-,N/A,,Clear,230,2013-09-16 16:55:00
1:15 PM,77.0,62.6,61,30.19,10.0,Calm,Calm,-,N/A,,Clear,0,2013-09-16 17:15:00
1:35 PM,77.4,62.6,60,30.18,10.0,Calm,Calm,-,N/A,,Scattered Clouds,0,2013-09-16 17:35:00
1:55 PM,78.6,62.6,58,30.18,10.0,WSW,3.5,-,N/A,,Scattered Clouds,250,2013-09-16 17:55:00
2:15 PM,79.9,63.1,56,30.17,10.0,SW,4.6,-,N/A,,Scattered Clouds,230,2013-09-16 18:15:00
2:35 PM,78.8,62.6,57,30.16,10.0,Calm,Calm,-,N/A,,Scattered Clouds,0,2013-09-16 18:35:00
2:55 PM,78.1,62.2,58,30.15,10.0,Calm,Calm,-,N/A,,Scattered Clouds,0,2013-09-16 18:55:00
3:15 PM,79.2,62.6,57,30.15,10.0,Calm,Calm,-,N/A,,Mostly Cloudy,0,2013-09-16 19:15:00
3:35 PM,79.7,63.1,57,30.14,10.0,WSW,3.5,-,N/A,,Scattered Clouds,240,2013-09-16 19:35:00
3:55 PM,78.1,62.8,59,30.14,10.0,Calm,Calm,-,N/A,,Scattered Clouds,0,2013-09-16 19:55:00
4:15 PM,77.9,63.9,62,30.13,10.0,NNW,3.5,-,N/A,,Mostly Cloudy,330,2013-09-16 20:15:00
4:35 PM,77.2,61.2,58,30.14,10.0,NNE,6.9,-,N/A,,Mostly Cloudy,20,2013-09-16 20:35:00
4:55 PM,77.9,58.1,50,30.14,10.0,NNE,8.1,-,N/A,,Mostly Cloudy,20,2013-09-16 20:55:00
5:15 PM,76.8,56.5,49,30.14,10.0,NNE,6.9,-,N/A,,Overcast,20,2013-09-16 21:15:00
5:35 PM,77.0,56.5,49,30.14,10.0,North,5.8,-,N/A,,Mostly Cloudy,350,2013-09-16 21:35:00
5:55 PM,75.7,57.6,53,30.14,10.0,North,4.6,-,N/A,,Overcast,10,2013-09-16 21:55:00
6:15 PM,75.9,59.2,56,30.14,10.0,North,4.6,-,N/A,,Mostly Cloudy,10,2013-09-16 22:15:00
6:35 PM,75.7,57.2,52,30.15,10.0,North,6.9,-,N/A,,Clear,360,2013-09-16 22:35:00
6:55 PM,74.5,58.3,57,30.15,10.0,NNW,3.5,-,N/A,,Scattered Clouds,330,2013-09-16 22:55:00
7:15 PM,72.5,60.3,65,30.15,10.0,Calm,Calm,-,N/A,,Scattered Clouds,0,2013-09-16 23:15:00
7:35 PM,68.7,62.8,81,30.15,10.0,Calm,Calm,-,N/A,,Scattered Clouds,0,2013-09-16 23:35:00
7:55 PM,67.3,61.5,82,30.15,10.0,Calm,Calm,-,N/A,,Clear,0,2013-09-16 23:55:00
8:15 PM,65.7,61.9,88,30.16,10.0,Calm,Calm,-,N/A,,Scattered Clouds,0,2013-09-17 00:15:00
8:35 PM,64.4,61.9,92,30.16,10.0,Calm,Calm,-,N/A,,Scattered Clouds,0,2013-09-17 00:35:00
8:55 PM,63.9,61.7,93,30.17,10.0,Calm,Calm,-,N/A,,Clear,0,2013-09-17 00:55:00
9:15 PM,63.1,60.8,92,30.18,10.0,Calm,Calm,-,N/A,,Clear,0,2013-09-17 01:15:00
9:35 PM,63.9,61.2,91,30.18,10.0,Calm,Calm,-,N/A,,Clear,0,2013-09-17 01:35:00
9:55 PM,62.1,60.3,94,30.18,10.0,Calm,Calm,-,N/A,,Clear,0,2013-09-17 01:55:00
10:15 PM,61.5,60.3,96,30.18,10.0,Calm,Calm,-,N/A,,Clear,0,2013-09-17 02:15:00
10:35 PM,61.7,60.1,94,30.19,10.0,Calm,Calm,-,N/A,,Clear,0,2013-09-17 02:35:00
10:55 PM,61.2,59.9,96,30.19,10.0,SE,4.6,-,N/A,,Clear,130,2013-09-17 02:55:00
11:15 PM,62.4,60.3,93,30.20,10.0,NNE,3.5,-,N/A,,Mostly Cloudy,20,2013-09-17 03:15:00
11:35 PM,62.6,60.4,93,30.20,10.0,Calm,Calm,-,N/A,,Overcast,0,2013-09-17 03:35:00
11:55 PM,62.2,60.3,93,30.20,10.0,Calm,Calm,-,N/A,,Overcast,0,2013-09-17 03:55:00